Time,TemperatureF,DewpointF,PressureIn,WindDirection,WindDirectionDegrees,WindSpeedMPH,WindSpeedGustMPH,Humidity,HourlyPrecipIn,Conditions,Clouds,dailyrainin,SoftwareType,DateUTC
2013-09-30 00:01:00,55.8,36.9,29.53,North,-999,-999.0,0.0,49,0.00,,,0.00,LWC V2.10 B1813,2013-09-30 06:01:00,
2013-09-30 00:06:00,55.7,36.8,29.53,North,-999,-999.0,0.0,49,0.00,,,0.00,LWC V2.10 B1813,2013-09-30 06:06:00,
2013-09-30 00:11:00,55.6,37.3,29.53,North,-999,-999.0,0.0,50,0.00,,,0.00,LWC V2.10 B1813,2013-09-30 06:11:00,
2013-09-30 00:16:00,55.6,36.7,29.53,North,-999,-999.0,0.0,49,0.00,,,0.00,LWC V2.10 B1813,2013-09-30 06:16:00,
2013-09-30 00:21:00,55.4,37.6,29.53,North,-999,-999.0,0.0,51,0.00,,,0.00,LWC V2.10 B1813,2013-09-30 06:21:00,
2013-09-30 00:26:00,55.4,37.1,29.53,North,-999,-999.0,0.0,50,0.00,,,0.00,LWC V2.10 B1813,2013-09-30 06:26:00,
2013-09-30 00:31:00,55.3,37.0,29.53,North,-999,-999.0,0.0,50,0.00,,,0.00,LWC V2.10 B1813,2013-09-30 06:31:00,
2013-09-30 00:36:00,55.3,37.0,29.53,North,-999,-999.0,0.0,50,0.00,,,0.00,LWC V2.10 B1813,2013-09-30 06:36:00,
2013-09-30 00:41:00,55.3,36.5,29.53,North,-999,-999.0,0.0,49,0.00,,,0.00,LWC V2.10 B1813,2013-09-30 06:41:00,
2013-09-30 00:46:00,55.3,37.0,29.53,North,-999,-999.0,0.0,50,0.00,,,0.00,LWC V2.10 B1813,2013-09-30 06:46:00,
2013-09-30 00:51:00,55.2,36.9,29.53,North,-999,-999.0,0.0,50,0.00,,,0.00,LWC V2.10 B1813,2013-09-30 06:51:00,
2013-09-30 00:56:00,55.2,36.9,29.53,North,-999,-999.0,0.0,50,0.00,,,0.00,LWC V2.10 B1813,2013-09-30 06:56:00,
2013-09-30 01:01:00,55.1,37.3,29.53,North,-999,-999.0,0.0,51,0.00,,,0.00,LWC V2.10 B1813,2013-09-30 07:01:00,
2013-09-30 01:06:00,55.1,37.3,29.53,North,-999,-999.0,0.0,51,0.00,,,0.00,LWC V2.10 B1813,2013-09-30 07:06:00,
2013-09-30 01:11:00,55.0,37.2,29.53,North,-999,-999.0,0.0,51,0.00,,,0.00,LWC V2.10 B1813,2013-09-30 07:11:00,
2013-09-30 01:16:00,55.0,37.7,29.53,North,-999,-999.0,0.0,52,0.00,,,0.00,LWC V2.10 B1813,2013-09-30 07:16:00,
2013-09-30 01:21:00,55.0,37.2,29.53,North,-999,-999.0,0.0,51,0.00,,,0.00,LWC V2.10 B1813,2013-09-30 07:21:00,
2013-09-30 01:26:00,54.9,36.1,29.53,North,-999,-999.0,0.0,49,0.00,,,0.00,LWC V2.10 B1813,2013-09-30 07:26:00,
2013-09-30 01:31:00,54.7,35.4,29.53,North,-999,-999.0,0.0,48,0.00,,,0.00,LWC V2.10 B1813,2013-09-30 07:31:00,
2013-09-30 01:36:00,54.8,36.0,29.53,North,-999,-999.0,0.0,49,0.00,,,0.00,LWC V2.10 B1813,2013-09-30 07:36:00,
2013-09-30 01:41:00,54.7,36.4,29.53,North,-999,-999.0,0.0,50,0.00,,,0.00,LWC V2.10 B1813,2013-09-30 07:41:00,
2013-09-30 01:46:00,54.5,35.7,29.53,North,-999,-999.0,0.0,49,0.00,,,0.00,LWC V2.10 B1813,2013-09-30 07:46:00,
2013-09-30 01:51:00,54.5,36.2,29.53,North,-999,-999.0,0.0,50,0.00,,,0.00,LWC V2.10 B1813,2013-09-30 07:51:00,
2013-09-30 01:56:00,54.3,35.6,29.53,North,-999,-999.0,0.0,49,0.00,,,0.00,LWC V2.10 B1813,2013-09-30 07:56:00,
2013-09-30 02:01:00,54.2,36.0,29.53,North,-999,-999.0,0.0,50,0.00,,,0.00,LWC V2.10 B1813,2013-09-30 08:01:00,
2013-09-30 02:06:00,54.1,36.4,29.53,North,-999,-999.0,0.0,51,0.00,,,0.00,LWC V2.10 B1813,2013-09-30 08:06:00,
2013-09-30 02:11:00,53.9,36.2,29.53,North,-999,-999.0,0.0,51,0.00,,,0.00,LWC V2.10 B1813,2013-09-30 08:11:00,
2013-09-30 02:16:00,53.7,36.5,29.53,North,-999,-999.0,0.0,52,0.00,,,0.00,LWC V2.10 B1813,2013-09-30 08:16:00,
2013-09-30 02:21:00,53.5,36.3,29.53,North,-999,-999.0,0.0,52,0.00,,,0.00,LWC V2.10 B1813,2013-09-30 08:21:00,
2013-09-30 02:26:00,53.4,36.2,29.53,North,-999,-999.0,0.0,52,0.00,,,0.00,LWC V2.10 B1813,2013-09-30 08:26:00,
2013-09-30 02:31:00,53.4,36.7,29.53,North,-999,-999.0,0.0,53,0.00,,,0.00,LWC V2.10 B1813,2013-09-30 08:31:00,
2013-09-30 02:36:00,53.4,36.7,29.53,North,-999,-999.0,0.0,53,0.00,,,0.00,LWC V2.10 B1813,2013-09-30 08:36:00,
2013-09-30 02:41:00,53.2,36.5,29.53,North,-999,-999.0,0.0,53,0.00,,,0.00,LWC V2.10 B1813,2013-09-30 08:41:00,
2013-09-30 02:46:00,53.1,36.9,29.53,North,-999,-999.0,0.0,54,0.00,,,0.00,LWC V2.10 B1813,2013-09-30 08:46:00,
2013-09-30 02:51:00,53.0,35.8,29.53,North,-999,-999.0,0.0,52,0.00,,,0.00,LWC V2.10 B1813,2013-09-30 08:51:00,
2013-09-30 02:56:00,52.8,36.1,29.53,North,-999,-999.0,0.0,53,0.00,,,0.00,LWC V2.10 B1813,2013-09-30 08:56:00,
2013-09-30 03:01:00,52.7,35.6,29.53,North,-999,-999.0,0.0,52,0.00,,,0.00,LWC V2.10 B1813,2013-09-30 09:01:00,
2013-09-30 03:06:00,52.7,36.1,29.53,North,-999,-999.0,0.0,53,0.00,,,0.00,LWC V2.10 B1813,2013-09-30 09:06:00,
2013-09-30 03:11:00,52.5,35.9,29.53,North,-999,-999.0,0.0,53,0.00,,,0.00,LWC V2.10 B1813,2013-09-30 09:11:00,
2013-09-30 03:16:00,52.5,35.4,29.53,North,-999,-999.0,0.0,52,0.00,,,0.00,LWC V2.10 B1813,2013-09-30 09:16:00,
2013-09-30 03:21:00,52.4,35.3,29.53,North,-999,-999.0,0.0,52,0.00,,,0.00,LWC V2.10 B1813,2013-09-30 09:21:00,
2013-09-30 03:26:00,52.4,35.8,29.53,North,-999,-999.0,0.0,53,0.00,,,0.00,LWC V2.10 B1813,2013-09-30 09:26:00,
2013-09-30 03:31:00,52.2,35.1,29.53,North,-999,-999.0,0.0,52,0.00,,,0.00,LWC V2.10 B1813,2013-09-30 09:31:00,
2013-09-30 03:36:00,52.2,36.1,29.53,North,-999,-999.0,0.0,54,0.00,,,0.00,LWC V2.10 B1813,2013-09-30 09:36:00,
2013-09-30 03:41:00,52.0,35.9,29.53,North,-999,-999.0,0.0,54,0.00,,,0.00,LWC V2.10 B1813,2013-09-30 09:41:00,
2013-09-30 03:46:00,51.9,35.8,29.53,North,-999,-999.0,0.0,54,0.00,,,0.00,LWC V2.10 B1813,2013-09-30 09:46:00,
2013-09-30 03:51:00,51.8,35.7,29.53,North,-999,-999.0,0.0,54,0.00,,,0.00,LWC V2.10 B1813,2013-09-30 09:51:00,
2013-09-30 03:56:00,51.7,36.1,29.53,North,-999,-999.0,0.0,55,0.00,,,0.00,LWC V2.10 B1813,2013-09-30 09:56:00,
2013-09-30 04:01:00,51.7,35.6,29.53,North,-999,-999.0,0.0,54,0.00,,,0.00,LWC V2.10 B1813,2013-09-30 10:01:00,
2013-09-30 04:06:00,51.6,36.0,29.53,North,-999,-999.0,0.0,55,0.00,,,0.00,LWC V2.10 B1813,2013-09-30 10:06:00,
2013-09-30 04:11:00,51.4,35.3,29.53,North,-999,-999.0,0.0,54,0.00,,,0.00,LWC V2.10 B1813,2013-09-30 10:11:00,
2013-09-30 04:16:00,51.3,35.7,29.53,North,-999,-999.0,0.0,55,0.00,,,0.00,LWC V2.10 B1813,2013-09-30 10:16:00,
2013-09-30 04:21:00,51.3,35.7,29.53,North,-999,-999.0,0.0,55,0.00,,,0.00,LWC V2.10 B1813,2013-09-30 10:21:00,
2013-09-30 04:26:00,51.1,35.5,29.53,North,-999,-999.0,0.0,55,0.00,,,0.00,LWC V2.10 B1813,2013-09-30 10:26:00,
2013-09-30 04:31:00,51.1,36.0,29.53,North,-999,-999.0,0.0,56,0.00,,,0.00,LWC V2.10 B1813,2013-09-30 10:31:00,
2013-09-30 04:36:00,51.0,35.9,29.53,North,-999,-999.0,0.0,56,0.00,,,0.00,LWC V2.10 B1813,2013-09-30 10:36:00,
2013-09-30 04:41:00,51.0,35.9,29.53,North,-999,-999.0,0.0,56,0.00,,,0.00,LWC V2.10 B1813,2013-09-30 10:41:00,
2013-09-30 04:46:00,50.9,35.3,29.53,North,-999,-999.0,0.0,55,0.00,,,0.00,LWC V2.10 B1813,2013-09-30 10:46:00,
2013-09-30 04:51:00,50.9,35.3,29.53,North,-999,-999.0,0.0,55,0.00,,,0.00,LWC V2.10 B1813,2013-09-30 10:51:00,
2013-09-30 04:56:00,50.8,35.2,29.53,North,-999,-999.0,0.0,55,0.00,,,0.00,LWC V2.10 B1813,2013-09-30 10:56:00,
2013-09-30 05:01:00,50.7,34.7,29.53,North,-999,-999.0,0.0,54,0.00,,,0.00,LWC V2.10 B1813,2013-09-30 11:01:00,
2013-09-30 05:06:00,50.6,34.6,29.53,North,-999,-999.0,0.0,54,0.00,,,0.00,LWC V2.10 B1813,2013-09-30 11:06:00,
2013-09-30 05:11:00,50.6,34.1,29.53,North,-999,-999.0,0.0,53,0.00,,,0.00,LWC V2.10 B1813,2013-09-30 11:11:00,
2013-09-30 05:16:00,50.4,33.9,29.53,North,-999,-999.0,0.0,53,0.00,,,0.00,LWC V2.10 B1813,2013-09-30 11:16:00,
2013-09-30 05:21:00,50.3,33.8,29.53,North,-999,-999.0,0.0,53,0.00,,,0.00,LWC V2.10 B1813,2013-09-30 11:21:00,
2013-09-30 05:26:00,50.3,34.3,29.53,North,-999,-999.0,0.0,54,0.00,,,0.00,LWC V2.10 B1813,2013-09-30 11:26:00,
2013-09-30 05:31:00,50.2,34.2,29.53,North,-999,-999.0,0.0,54,0.00,,,0.00,LWC V2.10 B1813,2013-09-30 11:31:00,
2013-09-30 05:36:00,50.2,33.7,29.53,North,-999,-999.0,0.0,53,0.00,,,0.00,LWC V2.10 B1813,2013-09-30 11:36:00,
2013-09-30 05:41:00,50.1,33.6,29.53,North,-999,-999.0,0.0,53,0.00,,,0.00,LWC V2.10 B1813,2013-09-30 11:41:00,
2013-09-30 05:46:00,50.1,33.6,29.53,North,-999,-999.0,0.0,53,0.00,,,0.00,LWC V2.10 B1813,2013-09-30 11:46:00,
2013-09-30 05:51:00,50.0,34.0,29.53,North,-999,-999.0,0.0,54,0.00,,,0.00,LWC V2.10 B1813,2013-09-30 11:51:00,
2013-09-30 05:56:00,50.1,33.6,29.53,North,-999,-999.0,0.0,53,0.00,,,0.00,LWC V2.10 B1813,2013-09-30 11:56:00,
2013-09-30 06:01:00,49.9,34.8,29.53,North,-999,-999.0,0.0,56,0.00,,,0.00,LWC V2.10 B1813,2013-09-30 12:01:00,
2013-09-30 06:06:00,49.8,33.8,29.53,North,-999,-999.0,0.0,54,0.00,,,0.00,LWC V2.10 B1813,2013-09-30 12:06:00,
2013-09-30 06:11:00,49.7,34.2,29.53,North,-999,-999.0,0.0,55,0.00,,,0.00,LWC V2.10 B1813,2013-09-30 12:11:00,
2013-09-30 06:16:00,49.7,34.2,29.53,North,-999,-999.0,0.0,55,0.00,,,0.00,LWC V2.10 B1813,2013-09-30 12:16:00,
2013-09-30 06:21:00,49.6,34.1,29.53,North,-999,-999.0,0.0,55,0.00,,,0.00,LWC V2.10 B1813,2013-09-30 12:21:00,
2013-09-30 06:26:00,49.6,34.1,29.53,North,-999,-999.0,0.0,55,0.00,,,0.00,LWC V2.10 B1813,2013-09-30 12:26:00,
2013-09-30 06:31:00,49.5,34.0,29.53,North,-999,-999.0,0.0,55,0.00,,,0.00,LWC V2.10 B1813,2013-09-30 12:31:00,
2013-09-30 06:36:00,49.4,33.9,29.53,North,-999,-999.0,0.0,55,0.00,,,0.00,LWC V2.10 B1813,2013-09-30 12:36:00,
2013-09-30 06:41:00,49.3,34.3,29.53,North,-999,-999.0,0.0,56,0.00,,,0.00,LWC V2.10 B1813,2013-09-30 12:41:00,
2013-09-30 06:46:00,49.2,33.7,29.53,North,-999,-999.0,0.0,55,0.00,,,0.00,LWC V2.10 B1813,2013-09-30 12:46:00,
2013-09-30 06:51:00,49.2,33.7,29.53,North,-999,-999.0,0.0,55,0.00,,,0.00,LWC V2.10 B1813,2013-09-30 12:51:00,
2013-09-30 06:56:00,49.2,33.7,29.53,North,-999,-999.0,0.0,55,0.00,,,0.00,LWC V2.10 B1813,2013-09-30 12:56:00,
2013-09-30 07:01:00,49.0,33.5,29.53,North,-999,-999.0,0.0,55,0.00,,,0.00,LWC V2.10 B1813,2013-09-30 13:01:00,
2013-09-30 07:06:00,49.0,34.4,29.53,North,-999,-999.0,0.0,57,0.00,,,0.00,LWC V2.10 B1813,2013-09-30 13:06:00,
2013-09-30 07:11:00,48.9,33.9,29.53,North,-999,-999.0,0.0,56,0.00,,,0.00,LWC V2.10 B1813,2013-09-30 13:11:00,
2013-09-30 07:16:00,48.9,34.3,29.53,North,-999,-999.0,0.0,57,0.00,,,0.00,LWC V2.10 B1813,2013-09-30 13:16:00,
2013-09-30 07:21:00,49.0,34.9,29.53,North,-999,-999.0,0.0,58,0.00,,,0.00,LWC V2.10 B1813,2013-09-30 13:21:00,
2013-09-30 07:26:00,48.9,34.8,29.53,North,-999,-999.0,0.0,58,0.00,,,0.00,LWC V2.10 B1813,2013-09-30 13:26:00,
2013-09-30 07:31:00,48.9,34.8,29.53,North,-999,-999.0,0.0,58,0.00,,,0.00,LWC V2.10 B1813,2013-09-30 13:31:00,
2013-09-30 07:36:00,48.9,34.3,29.53,North,-999,-999.0,0.0,57,0.00,,,0.00,LWC V2.10 B1813,2013-09-30 13:36:00,
2013-09-30 07:41:00,49.1,35.0,29.53,North,-999,-999.0,0.0,58,0.00,,,0.00,LWC V2.10 B1813,2013-09-30 13:41:00,
2013-09-30 07:46:00,49.3,34.7,29.53,North,-999,-999.0,0.0,57,0.00,,,0.00,LWC V2.10 B1813,2013-09-30 13:46:00,
2013-09-30 07:51:00,49.4,35.7,29.53,North,-999,-999.0,0.0,59,0.00,,,0.00,LWC V2.10 B1813,2013-09-30 13:51:00,
2013-09-30 07:56:00,49.6,35.4,29.53,North,-999,-999.0,0.0,58,0.00,,,0.00,LWC V2.10 B1813,2013-09-30 13:56:00,
2013-09-30 08:01:00,49.8,35.2,29.53,North,-999,-999.0,0.0,57,0.00,,,0.00,LWC V2.10 B1813,2013-09-30 14:01:00,
2013-09-30 08:06:00,50.0,34.5,29.53,North,-999,-999.0,0.0,55,0.00,,,0.00,LWC V2.10 B1813,2013-09-30 14:06:00,
2013-09-30 08:11:00,50.3,34.8,29.53,North,-999,-999.0,0.0,55,0.00,,,0.00,LWC V2.10 B1813,2013-09-30 14:11:00,
2013-09-30 08:16:00,50.8,34.3,29.53,North,-999,-999.0,0.0,53,0.00,,,0.00,LWC V2.10 B1813,2013-09-30 14:16:00,
2013-09-30 08:21:00,51.6,34.1,29.53,North,-999,-999.0,0.0,51,0.00,,,0.00,LWC V2.10 B1813,2013-09-30 14:21:00,
2013-09-30 08:26:00,52.4,34.3,29.53,North,-999,-999.0,0.0,50,0.00,,,0.00,LWC V2.10 B1813,2013-09-30 14:26:00,
2013-09-30 08:31:00,53.1,33.9,29.53,North,-999,-999.0,0.0,48,0.00,,,0.00,LWC V2.10 B1813,2013-09-30 14:31:00,
2013-09-30 08:36:00,53.9,34.7,29.53,North,-999,-999.0,0.0,48,0.00,,,0.00,LWC V2.10 B1813,2013-09-30 14:36:00,
2013-09-30 08:41:00,54.4,35.1,29.53,North,-999,-999.0,0.0,48,0.00,,,0.00,LWC V2.10 B1813,2013-09-30 14:41:00,
2013-09-30 08:46:00,54.9,35.1,29.53,North,-999,-999.0,0.0,47,0.00,,,0.00,LWC V2.10 B1813,2013-09-30 14:46:00,
2013-09-30 08:51:00,55.3,34.3,29.53,North,-999,-999.0,0.0,45,0.00,,,0.00,LWC V2.10 B1813,2013-09-30 14:51:00,
2013-09-30 08:56:00,55.6,34.0,29.53,North,-999,-999.0,0.0,44,0.00,,,0.00,LWC V2.10 B1813,2013-09-30 14:56:00,
2013-09-30 09:01:00,55.8,34.2,29.53,North,-999,-999.0,0.0,44,0.00,,,0.00,LWC V2.10 B1813,2013-09-30 15:01:00,
2013-09-30 09:06:00,56.0,33.8,29.53,North,-999,-999.0,0.0,43,0.00,,,0.00,LWC V2.10 B1813,2013-09-30 15:06:00,
2013-09-30 09:11:00,56.2,34.0,29.53,North,-999,-999.0,0.0,43,0.00,,,0.00,LWC V2.10 B1813,2013-09-30 15:11:00,
2013-09-30 09:16:00,56.4,33.0,29.53,North,-999,-999.0,0.0,41,0.00,,,0.00,LWC V2.10 B1813,2013-09-30 15:16:00,
2013-09-30 09:21:00,56.6,33.2,29.53,North,-999,-999.0,0.0,41,0.00,,,0.00,LWC V2.10 B1813,2013-09-30 15:21:00,
2013-09-30 09:26:00,56.6,33.8,29.53,North,-999,-999.0,0.0,42,0.00,,,0.00,LWC V2.10 B1813,2013-09-30 15:26:00,
2013-09-30 09:31:00,56.8,32.7,29.53,North,-999,-999.0,0.0,40,0.00,,,0.00,LWC V2.10 B1813,2013-09-30 15:31:00,
2013-09-30 09:36:00,56.9,33.4,29.53,North,-999,-999.0,0.0,41,0.00,,,0.00,LWC V2.10 B1813,2013-09-30 15:36:00,
2013-09-30 09:41:00,57.1,32.4,29.53,North,-999,-999.0,0.0,39,0.00,,,0.00,LWC V2.10 B1813,2013-09-30 15:41:00,
2013-09-30 09:46:00,57.3,33.8,29.53,North,-999,-999.0,0.0,41,0.00,,,0.00,LWC V2.10 B1813,2013-09-30 15:46:00,
2013-09-30 09:51:00,57.5,34.0,29.53,North,-999,-999.0,0.0,41,0.00,,,0.00,LWC V2.10 B1813,2013-09-30 15:51:00,
2013-09-30 09:56:00,57.6,33.5,29.53,North,-999,-999.0,0.0,40,0.00,,,0.00,LWC V2.10 B1813,2013-09-30 15:56:00,
2013-09-30 10:01:00,57.7,34.2,29.53,North,-999,-999.0,0.0,41,0.00,,,0.00,LWC V2.10 B1813,2013-09-30 16:01:00,
2013-09-30 10:06:00,58.0,33.8,29.53,North,-999,-999.0,0.0,40,0.00,,,0.00,LWC V2.10 B1813,2013-09-30 16:06:00,
2013-09-30 10:11:00,58.1,32.6,29.53,North,-999,-999.0,0.0,38,0.00,,,0.00,LWC V2.10 B1813,2013-09-30 16:11:00,
2013-09-30 10:16:00,58.4,32.9,29.53,North,-999,-999.0,0.0,38,0.00,,,0.00,LWC V2.10 B1813,2013-09-30 16:16:00,
2013-09-30 10:21:00,58.6,33.1,29.53,North,-999,-999.0,0.0,38,0.00,,,0.00,LWC V2.10 B1813,2013-09-30 16:21:00,
2013-09-30 10:26:00,58.9,32.7,29.53,North,-999,-999.0,0.0,37,0.00,,,0.00,LWC V2.10 B1813,2013-09-30 16:26:00,
2013-09-30 10:31:00,59.0,32.8,29.53,North,-999,-999.0,0.0,37,0.00,,,0.00,LWC V2.10 B1813,2013-09-30 16:31:00,
2013-09-30 10:36:00,59.4,31.0,29.53,North,-999,-999.0,0.0,34,0.00,,,0.00,LWC V2.10 B1813,2013-09-30 16:36:00,
2013-09-30 10:41:00,59.6,30.5,29.53,North,-999,-999.0,0.0,33,0.00,,,0.00,LWC V2.10 B1813,2013-09-30 16:41:00,
2013-09-30 10:46:00,59.9,31.5,29.53,North,-999,-999.0,0.0,34,0.00,,,0.00,LWC V2.10 B1813,2013-09-30 16:46:00,
2013-09-30 10:51:00,60.0,33.0,29.53,North,-999,-999.0,0.0,36,0.00,,,0.00,LWC V2.10 B1813,2013-09-30 16:51:00,
2013-09-30 10:56:00,60.1,31.6,29.53,North,-999,-999.0,0.0,34,0.00,,,0.00,LWC V2.10 B1813,2013-09-30 16:56:00,
2013-09-30 11:01:00,60.3,31.1,29.53,North,-999,-999.0,0.0,33,0.00,,,0.00,LWC V2.10 B1813,2013-09-30 17:01:00,
2013-09-30 11:06:00,60.6,31.3,29.53,North,-999,-999.0,0.0,33,0.00,,,0.00,LWC V2.10 B1813,2013-09-30 17:06:00,
2013-09-30 11:11:00,60.9,31.6,29.53,North,-999,-999.0,0.0,33,0.00,,,0.00,LWC V2.10 B1813,2013-09-30 17:11:00,
2013-09-30 11:16:00,61.0,31.7,29.53,North,-999,-999.0,0.0,33,0.00,,,0.00,LWC V2.10 B1813,2013-09-30 17:16:00,
2013-09-30 11:21:00,61.3,31.2,29.53,North,-999,-999.0,0.0,32,0.00,,,0.00,LWC V2.10 B1813,2013-09-30 17:21:00,
2013-09-30 11:26:00,61.6,32.2,29.53,North,-999,-999.0,0.0,33,0.00,,,0.00,LWC V2.10 B1813,2013-09-30 17:26:00,
2013-09-30 11:31:00,61.8,30.8,29.53,North,-999,-999.0,0.0,31,0.00,,,0.00,LWC V2.10 B1813,2013-09-30 17:31:00,
2013-09-30 11:36:00,62.1,32.7,29.53,North,-999,-999.0,0.0,33,0.00,,,0.00,LWC V2.10 B1813,2013-09-30 17:36:00,
2013-09-30 11:41:00,62.2,32.7,29.53,North,-999,-999.0,0.0,33,0.00,,,0.00,LWC V2.10 B1813,2013-09-30 17:41:00,
2013-09-30 11:46:00,62.5,33.0,29.53,North,-999,-999.0,0.0,33,0.00,,,0.00,LWC V2.10 B1813,2013-09-30 17:46:00,
2013-09-30 11:51:00,62.7,33.2,29.53,North,-999,-999.0,0.0,33,0.00,,,0.00,LWC V2.10 B1813,2013-09-30 17:51:00,
2013-09-30 11:56:00,62.8,30.9,29.53,North,-999,-999.0,0.0,30,0.00,,,0.00,LWC V2.10 B1813,2013-09-30 17:56:00,
2013-09-30 12:01:00,63.2,32.9,29.53,North,-999,-999.0,0.0,32,0.00,,,0.00,LWC V2.10 B1813,2013-09-30 18:01:00,
2013-09-30 12:06:00,63.5,33.1,29.53,North,-999,-999.0,0.0,32,0.00,,,0.00,LWC V2.10 B1813,2013-09-30 18:06:00,
2013-09-30 12:11:00,63.7,33.3,29.53,North,-999,-999.0,0.0,32,0.00,,,0.00,LWC V2.10 B1813,2013-09-30 18:11:00,
2013-09-30 12:16:00,64.2,33.7,29.53,North,-999,-999.0,0.0,32,0.00,,,0.00,LWC V2.10 B1813,2013-09-30 18:16:00,
2013-09-30 12:21:00,64.4,33.1,29.53,North,-999,-999.0,0.0,31,0.00,,,0.00,LWC V2.10 B1813,2013-09-30 18:21:00,
2013-09-30 12:26:00,64.8,33.5,29.53,North,-999,-999.0,0.0,31,0.00,,,0.00,LWC V2.10 B1813,2013-09-30 18:26:00,
2013-09-30 12:31:00,64.7,33.4,29.53,North,-999,-999.0,0.0,31,0.00,,,0.00,LWC V2.10 B1813,2013-09-30 18:31:00,
2013-09-30 12:36:00,64.8,32.6,29.53,North,-999,-999.0,0.0,30,0.00,,,0.00,LWC V2.10 B1813,2013-09-30 18:36:00,
2013-09-30 12:41:00,65.0,33.6,29.53,North,-999,-999.0,0.0,31,0.00,,,0.00,LWC V2.10 B1813,2013-09-30 18:41:00,
2013-09-30 12:46:00,65.4,32.3,29.53,North,-999,-999.0,0.0,29,0.00,,,0.00,LWC V2.10 B1813,2013-09-30 18:46:00,
2013-09-30 12:51:00,65.6,34.1,29.53,North,-999,-999.0,0.0,31,0.00,,,0.00,LWC V2.10 B1813,2013-09-30 18:51:00,
2013-09-30 12:56:00,65.6,34.1,29.53,North,-999,-999.0,0.0,31,0.00,,,0.00,LWC V2.10 B1813,2013-09-30 18:56:00,
2013-09-30 13:01:00,65.7,34.2,29.53,North,-999,-999.0,0.0,31,0.00,,,0.00,LWC V2.10 B1813,2013-09-30 19:01:00,
2013-09-30 13:06:00,66.0,32.8,29.53,North,-999,-999.0,0.0,29,0.00,,,0.00,LWC V2.10 B1813,2013-09-30 19:06:00,
2013-09-30 13:11:00,66.2,34.7,29.53,North,-999,-999.0,0.0,31,0.00,,,0.00,LWC V2.10 B1813,2013-09-30 19:11:00,
2013-09-30 13:16:00,66.5,34.1,29.53,North,-999,-999.0,0.0,30,0.00,,,0.00,LWC V2.10 B1813,2013-09-30 19:16:00,
2013-09-30 13:21:00,66.6,35.0,29.53,North,-999,-999.0,0.0,31,0.00,,,0.00,LWC V2.10 B1813,2013-09-30 19:21:00,
2013-09-30 13:26:00,66.7,35.1,29.53,North,-999,-999.0,0.0,31,0.00,,,0.00,LWC V2.10 B1813,2013-09-30 19:26:00,
2013-09-30 13:31:00,66.9,34.5,29.53,North,-999,-999.0,0.0,30,0.00,,,0.00,LWC V2.10 B1813,2013-09-30 19:31:00,
2013-09-30 13:36:00,67.1,32.9,29.53,North,-999,-999.0,0.0,28,0.00,,,0.00,LWC V2.10 B1813,2013-09-30 19:36:00,
2013-09-30 13:41:00,67.6,34.2,29.53,North,-999,-999.0,0.0,29,0.00,,,0.00,LWC V2.10 B1813,2013-09-30 19:41:00,
2013-09-30 13:46:00,67.7,34.3,29.53,North,-999,-999.0,0.0,29,0.00,,,0.00,LWC V2.10 B1813,2013-09-30 19:46:00,
2013-09-30 13:51:00,67.9,33.6,29.53,North,-999,-999.0,0.0,28,0.00,,,0.00,LWC V2.10 B1813,2013-09-30 19:51:00,
2013-09-30 13:56:00,67.8,34.4,29.53,North,-999,-999.0,0.0,29,0.00,,,0.00,LWC V2.10 B1813,2013-09-30 19:56:00,
2013-09-30 14:01:00,67.9,33.6,29.53,North,-999,-999.0,0.0,28,0.00,,,0.00,LWC V2.10 B1813,2013-09-30 20:01:00,
2013-09-30 14:06:00,68.1,32.9,29.53,North,-999,-999.0,0.0,27,0.00,,,0.00,LWC V2.10 B1813,2013-09-30 20:06:00,
2013-09-30 14:11:00,68.1,32.9,29.53,North,-999,-999.0,0.0,27,0.00,,,0.00,LWC V2.10 B1813,2013-09-30 20:11:00,
2013-09-30 14:16:00,68.4,33.1,29.53,North,-999,-999.0,0.0,27,0.00,,,0.00,LWC V2.10 B1813,2013-09-30 20:16:00,
2013-09-30 14:21:00,68.4,33.1,29.53,North,-999,-999.0,0.0,27,0.00,,,0.00,LWC V2.10 B1813,2013-09-30 20:21:00,
2013-09-30 14:26:00,68.6,33.3,29.53,North,-999,-999.0,0.0,27,0.00,,,0.00,LWC V2.10 B1813,2013-09-30 20:26:00,
2013-09-30 14:31:00,68.8,33.5,29.53,North,-999,-999.0,0.0,27,0.00,,,0.00,LWC V2.10 B1813,2013-09-30 20:31:00,
2013-09-30 14:36:00,69.0,33.6,29.53,North,-999,-999.0,0.0,27,0.00,,,0.00,LWC V2.10 B1813,2013-09-30 20:36:00,
2013-09-30 14:41:00,69.2,33.8,29.53,North,-999,-999.0,0.0,27,0.00,,,0.00,LWC V2.10 B1813,2013-09-30 20:41:00,
2013-09-30 14:46:00,69.6,34.1,29.53,North,-999,-999.0,0.0,27,0.00,,,0.00,LWC V2.10 B1813,2013-09-30 20:46:00,
2013-09-30 14:51:00,69.9,34.4,29.53,North,-999,-999.0,0.0,27,0.00,,,0.00,LWC V2.10 B1813,2013-09-30 20:51:00,
2013-09-30 14:56:00,69.8,34.3,29.53,North,-999,-999.0,0.0,27,0.00,,,0.00,LWC V2.10 B1813,2013-09-30 20:56:00,
2013-09-30 15:01:00,69.9,34.4,29.53,North,-999,-999.0,0.0,27,0.00,,,0.00,LWC V2.10 B1813,2013-09-30 21:01:00,
2013-09-30 15:06:00,69.8,33.4,29.53,North,-999,-999.0,0.0,26,0.00,,,0.00,LWC V2.10 B1813,2013-09-30 21:06:00,
2013-09-30 15:11:00,70.0,34.5,29.53,North,-999,-999.0,0.0,27,0.00,,,0.00,LWC V2.10 B1813,2013-09-30 21:11:00,
2013-09-30 15:16:00,70.1,34.6,29.53,North,-999,-999.0,0.0,27,0.00,,,0.00,LWC V2.10 B1813,2013-09-30 21:16:00,
2013-09-30 15:21:00,70.1,34.6,29.53,North,-999,-999.0,0.0,27,0.00,,,0.00,LWC V2.10 B1813,2013-09-30 21:21:00,
2013-09-30 15:26:00,70.0,34.5,29.53,North,-999,-999.0,0.0,27,0.00,,,0.00,LWC V2.10 B1813,2013-09-30 21:26:00,
2013-09-30 15:31:00,70.0,33.5,29.53,North,-999,-999.0,0.0,26,0.00,,,0.00,LWC V2.10 B1813,2013-09-30 21:31:00,
2013-09-30 15:36:00,70.0,34.5,29.53,North,-999,-999.0,0.0,27,0.00,,,0.00,LWC V2.10 B1813,2013-09-30 21:36:00,
2013-09-30 15:41:00,70.2,33.7,29.53,North,-999,-999.0,0.0,26,0.00,,,0.00,LWC V2.10 B1813,2013-09-30 21:41:00,
2013-09-30 15:46:00,70.5,34.0,29.53,North,-999,-999.0,0.0,26,0.00,,,0.00,LWC V2.10 B1813,2013-09-30 21:46:00,
2013-09-30 15:51:00,70.3,33.8,29.53,North,-999,-999.0,0.0,26,0.00,,,0.00,LWC V2.10 B1813,2013-09-30 21:51:00,
2013-09-30 15:56:00,70.6,34.0,29.53,North,-999,-999.0,0.0,26,0.00,,,0.00,LWC V2.10 B1813,2013-09-30 21:56:00,
2013-09-30 16:01:00,70.5,34.0,29.53,North,-999,-999.0,0.0,26,0.00,,,0.00,LWC V2.10 B1813,2013-09-30 22:01:00,
2013-09-30 16:06:00,70.5,34.0,29.53,North,-999,-999.0,0.0,26,0.00,,,0.00,LWC V2.10 B1813,2013-09-30 22:06:00,
2013-09-30 16:11:00,70.6,34.0,29.53,North,-999,-999.0,0.0,26,0.00,,,0.00,LWC V2.10 B1813,2013-09-30 22:11:00,
2013-09-30 16:16:00,70.6,33.1,29.53,North,-999,-999.0,0.0,25,0.00,,,0.00,LWC V2.10 B1813,2013-09-30 22:16:00,
2013-09-30 16:21:00,70.5,32.0,29.53,North,-999,-999.0,0.0,24,0.00,,,0.00,LWC V2.10 B1813,2013-09-30 22:21:00,
2013-09-30 16:26:00,70.6,33.1,29.53,North,-999,-999.0,0.0,25,0.00,,,0.00,LWC V2.10 B1813,2013-09-30 22:26:00,
2013-09-30 16:31:00,70.7,33.1,29.53,North,-999,-999.0,0.0,25,0.00,,,0.00,LWC V2.10 B1813,2013-09-30 22:31:00,
2013-09-30 16:36:00,70.6,32.0,29.53,North,-999,-999.0,0.0,24,0.00,,,0.00,LWC V2.10 B1813,2013-09-30 22:36:00,
2013-09-30 16:41:00,70.7,33.1,29.53,North,-999,-999.0,0.0,25,0.00,,,0.00,LWC V2.10 B1813,2013-09-30 22:41:00,
2013-09-30 16:46:00,70.8,32.2,29.53,North,-999,-999.0,0.0,24,0.00,,,0.00,LWC V2.10 B1813,2013-09-30 22:46:00,
2013-09-30 16:51:00,70.7,34.1,29.53,North,-999,-999.0,0.0,26,0.00,,,0.00,LWC V2.10 B1813,2013-09-30 22:51:00,
2013-09-30 16:56:00,70.6,32.0,29.53,North,-999,-999.0,0.0,24,0.00,,,0.00,LWC V2.10 B1813,2013-09-30 22:56:00,
2013-09-30 17:01:00,70.5,33.0,29.53,North,-999,-999.0,0.0,25,0.00,,,0.00,LWC V2.10 B1813,2013-09-30 23:01:00,
2013-09-30 17:06:00,70.5,32.0,29.53,North,-999,-999.0,0.0,24,0.00,,,0.00,LWC V2.10 B1813,2013-09-30 23:06:00,
2013-09-30 17:11:00,70.6,32.0,29.53,North,-999,-999.0,0.0,24,0.00,,,0.00,LWC V2.10 B1813,2013-09-30 23:11:00,
2013-09-30 17:16:00,70.6,33.1,29.53,North,-999,-999.0,0.0,25,0.00,,,0.00,LWC V2.10 B1813,2013-09-30 23:16:00,
2013-09-30 17:21:00,70.6,32.0,29.53,North,-999,-999.0,0.0,24,0.00,,,0.00,LWC V2.10 B1813,2013-09-30 23:21:00,
2013-09-30 17:26:00,70.5,32.0,29.53,North,-999,-999.0,0.0,24,0.00,,,0.00,LWC V2.10 B1813,2013-09-30 23:26:00,
2013-09-30 17:31:00,70.5,32.0,29.53,North,-999,-999.0,0.0,24,0.00,,,0.00,LWC V2.10 B1813,2013-09-30 23:31:00,
2013-09-30 17:36:00,70.5,33.0,29.53,North,-999,-999.0,0.0,25,0.00,,,0.00,LWC V2.10 B1813,2013-09-30 23:36:00,
2013-09-30 17:41:00,70.4,32.9,29.53,North,-999,-999.0,0.0,25,0.00,,,0.00,LWC V2.10 B1813,2013-09-30 23:41:00,
2013-09-30 17:46:00,70.4,33.9,29.53,North,-999,-999.0,0.0,26,0.00,,,0.00,LWC V2.10 B1813,2013-09-30 23:46:00,
2013-09-30 17:51:00,70.4,33.9,29.53,North,-999,-999.0,0.0,26,0.00,,,0.00,LWC V2.10 B1813,2013-09-30 23:51:00,
2013-09-30 17:56:00,70.3,33.8,29.53,North,-999,-999.0,0.0,26,0.00,,,0.00,LWC V2.10 B1813,2013-09-30 23:56:00,
2013-09-30 18:01:00,70.2,34.6,29.53,North,-999,-999.0,0.0,27,0.00,,,0.00,LWC V2.10 B1813,2013-10-01 00:01:00,
2013-09-30 18:06:00,70.1,34.6,29.53,North,-999,-999.0,0.0,27,0.00,,,0.00,LWC V2.10 B1813,2013-10-01 00:06:00,
2013-09-30 18:11:00,69.8,33.4,29.53,North,-999,-999.0,0.0,26,0.00,,,0.00,LWC V2.10 B1813,2013-10-01 00:11:00,
2013-09-30 18:16:00,69.7,34.2,29.53,North,-999,-999.0,0.0,27,0.00,,,0.00,LWC V2.10 B1813,2013-10-01 00:16:00,
2013-09-30 18:21:00,69.4,34.0,29.53,North,-999,-999.0,0.0,27,0.00,,,0.00,LWC V2.10 B1813,2013-10-01 00:21:00,
2013-09-30 18:26:00,69.1,34.6,29.53,North,-999,-999.0,0.0,28,0.00,,,0.00,LWC V2.10 B1813,2013-10-01 00:26:00,
2013-09-30 18:31:00,68.9,34.4,29.53,North,-999,-999.0,0.0,28,0.00,,,0.00,LWC V2.10 B1813,2013-10-01 00:31:00,
2013-09-30 18:36:00,68.9,33.5,29.53,North,-999,-999.0,0.0,27,0.00,,,0.00,LWC V2.10 B1813,2013-10-01 00:36:00,
2013-09-30 18:41:00,68.7,32.4,29.53,North,-999,-999.0,0.0,26,0.00,,,0.00,LWC V2.10 B1813,2013-10-01 00:41:00,
2013-09-30 18:46:00,68.5,33.2,29.53,North,-999,-999.0,0.0,27,0.00,,,0.00,LWC V2.10 B1813,2013-10-01 00:46:00,
2013-09-30 18:51:00,68.4,33.1,29.53,North,-999,-999.0,0.0,27,0.00,,,0.00,LWC V2.10 B1813,2013-10-01 00:51:00,
2013-09-30 18:56:00,68.3,33.0,29.53,North,-999,-999.0,0.0,27,0.00,,,0.00,LWC V2.10 B1813,2013-10-01 00:56:00,
2013-09-30 19:01:00,67.9,32.7,29.53,North,-999,-999.0,0.0,27,0.00,,,0.00,LWC V2.10 B1813,2013-10-01 01:01:00,
2013-09-30 19:06:00,67.8,32.6,29.53,North,-999,-999.0,0.0,27,0.00,,,0.00,LWC V2.10 B1813,2013-10-01 01:06:00,
2013-09-30 19:11:00,67.6,32.4,29.53,North,-999,-999.0,0.0,27,0.00,,,0.00,LWC V2.10 B1813,2013-10-01 01:11:00,
2013-09-30 19:16:00,67.3,31.2,29.53,North,-999,-999.0,0.0,26,0.00,,,0.00,LWC V2.10 B1813,2013-10-01 01:16:00,
2013-09-30 19:21:00,67.0,31.9,29.53,North,-999,-999.0,0.0,27,0.00,,,0.00,LWC V2.10 B1813,2013-10-01 01:21:00,
2013-09-30 19:26:00,66.8,31.7,29.53,North,-999,-999.0,0.0,27,0.00,,,0.00,LWC V2.10 B1813,2013-10-01 01:26:00,
2013-09-30 19:31:00,66.6,31.6,29.53,North,-999,-999.0,0.0,27,0.00,,,0.00,LWC V2.10 B1813,2013-10-01 01:31:00,
2013-09-30 19:36:00,66.3,31.3,29.53,North,-999,-999.0,0.0,27,0.00,,,0.00,LWC V2.10 B1813,2013-10-01 01:36:00,
2013-09-30 19:41:00,66.2,31.2,29.53,North,-999,-999.0,0.0,27,0.00,,,0.00,LWC V2.10 B1813,2013-10-01 01:41:00,
2013-09-30 19:46:00,66.0,32.8,29.53,North,-999,-999.0,0.0,29,0.00,,,0.00,LWC V2.10 B1813,2013-10-01 01:46:00,
2013-09-30 19:51:00,65.7,32.6,29.53,North,-999,-999.0,0.0,29,0.00,,,0.00,LWC V2.10 B1813,2013-10-01 01:51:00,
2013-09-30 19:56:00,65.4,33.2,29.53,North,-999,-999.0,0.0,30,0.00,,,0.00,LWC V2.10 B1813,2013-10-01 01:56:00,
2013-09-30 20:01:00,65.3,33.1,29.53,North,-999,-999.0,0.0,30,0.00,,,0.00,LWC V2.10 B1813,2013-10-01 02:01:00,
2013-09-30 20:06:00,65.1,32.9,29.53,North,-999,-999.0,0.0,30,0.00,,,0.00,LWC V2.10 B1813,2013-10-01 02:06:00,
2013-09-30 20:11:00,64.9,32.7,29.53,North,-999,-999.0,0.0,30,0.00,,,0.00,LWC V2.10 B1813,2013-10-01 02:11:00,
2013-09-30 20:16:00,64.8,35.0,29.53,North,-999,-999.0,0.0,33,0.00,,,0.00,LWC V2.10 B1813,2013-10-01 02:16:00,
2013-09-30 20:21:00,64.6,34.8,29.53,North,-999,-999.0,0.0,33,0.00,,,0.00,LWC V2.10 B1813,2013-10-01 02:21:00,
2013-09-30 20:26:00,64.6,34.8,29.53,North,-999,-999.0,0.0,33,0.00,,,0.00,LWC V2.10 B1813,2013-10-01 02:26:00,
2013-09-30 20:31:00,64.4,34.7,29.53,North,-999,-999.0,0.0,33,0.00,,,0.00,LWC V2.10 B1813,2013-10-01 02:31:00,
2013-09-30 20:36:00,64.1,34.4,29.53,North,-999,-999.0,0.0,33,0.00,,,0.00,LWC V2.10 B1813,2013-10-01 02:36:00,
2013-09-30 20:41:00,64.1,34.4,29.53,North,-999,-999.0,0.0,33,0.00,,,0.00,LWC V2.10 B1813,2013-10-01 02:41:00,
2013-09-30 20:46:00,63.8,34.9,29.53,North,-999,-999.0,0.0,34,0.00,,,0.00,LWC V2.10 B1813,2013-10-01 02:46:00,
2013-09-30 20:51:00,63.7,34.8,29.53,North,-999,-999.0,0.0,34,0.00,,,0.00,LWC V2.10 B1813,2013-10-01 02:51:00,
2013-09-30 20:56:00,63.6,35.4,29.53,North,-999,-999.0,0.0,35,0.00,,,0.00,LWC V2.10 B1813,2013-10-01 02:56:00,
2013-09-30 21:01:00,63.3,35.9,29.53,North,-999,-999.0,0.0,36,0.00,,,0.00,LWC V2.10 B1813,2013-10-01 03:01:00,
2013-09-30 21:06:00,63.2,35.8,29.53,North,-999,-999.0,0.0,36,0.00,,,0.00,LWC V2.10 B1813,2013-10-01 03:06:00,
2013-09-30 21:11:00,63.1,35.7,29.53,North,-999,-999.0,0.0,36,0.00,,,0.00,LWC V2.10 B1813,2013-10-01 03:11:00,
2013-09-30 21:16:00,63.0,35.6,29.53,North,-999,-999.0,0.0,36,0.00,,,0.00,LWC V2.10 B1813,2013-10-01 03:16:00,
2013-09-30 21:21:00,62.8,35.4,29.53,North,-999,-999.0,0.0,36,0.00,,,0.00,LWC V2.10 B1813,2013-10-01 03:21:00,
2013-09-30 21:26:00,62.6,35.3,29.53,North,-999,-999.0,0.0,36,0.00,,,0.00,LWC V2.10 B1813,2013-10-01 03:26:00,
2013-09-30 21:31:00,62.4,35.1,29.53,North,-999,-999.0,0.0,36,0.00,,,0.00,LWC V2.10 B1813,2013-10-01 03:31:00,
2013-09-30 21:36:00,62.3,35.0,29.53,North,-999,-999.0,0.0,36,0.00,,,0.00,LWC V2.10 B1813,2013-10-01 03:36:00,
2013-09-30 21:41:00,62.1,34.8,29.53,North,-999,-999.0,0.0,36,0.00,,,0.00,LWC V2.10 B1813,2013-10-01 03:41:00,
2013-09-30 21:46:00,61.9,35.3,29.53,North,-999,-999.0,0.0,37,0.00,,,0.00,LWC V2.10 B1813,2013-10-01 03:46:00,
2013-09-30 21:51:00,61.8,34.6,29.53,North,-999,-999.0,0.0,36,0.00,,,0.00,LWC V2.10 B1813,2013-10-01 03:51:00,
2013-09-30 21:56:00,61.6,34.4,29.53,North,-999,-999.0,0.0,36,0.00,,,0.00,LWC V2.10 B1813,2013-10-01 03:56:00,
2013-09-30 22:01:00,61.5,35.0,29.53,North,-999,-999.0,0.0,37,0.00,,,0.00,LWC V2.10 B1813,2013-10-01 04:01:00,
2013-09-30 22:06:00,61.3,34.8,29.53,North,-999,-999.0,0.0,37,0.00,,,0.00,LWC V2.10 B1813,2013-10-01 04:06:00,
2013-09-30 22:11:00,61.3,34.8,29.53,North,-999,-999.0,0.0,37,0.00,,,0.00,LWC V2.10 B1813,2013-10-01 04:11:00,
2013-09-30 22:16:00,61.1,33.2,29.53,North,-999,-999.0,0.0,35,0.00,,,0.00,LWC V2.10 B1813,2013-10-01 04:16:00,
2013-09-30 22:21:00,61.1,34.6,29.53,North,-999,-999.0,0.0,37,0.00,,,0.00,LWC V2.10 B1813,2013-10-01 04:21:00,
2013-09-30 22:26:00,61.0,35.2,29.53,North,-999,-999.0,0.0,38,0.00,,,0.00,LWC V2.10 B1813,2013-10-01 04:26:00,
2013-09-30 22:31:00,60.8,35.0,29.53,North,-999,-999.0,0.0,38,0.00,,,0.00,LWC V2.10 B1813,2013-10-01 04:31:00,
2013-09-30 22:36:00,60.7,34.9,29.53,North,-999,-999.0,0.0,38,0.00,,,0.00,LWC V2.10 B1813,2013-10-01 04:36:00,
2013-09-30 22:41:00,60.6,34.2,29.53,North,-999,-999.0,0.0,37,0.00,,,0.00,LWC V2.10 B1813,2013-10-01 04:41:00,
2013-09-30 22:46:00,60.4,34.7,29.53,North,-999,-999.0,0.0,38,0.00,,,0.00,LWC V2.10 B1813,2013-10-01 04:46:00,
2013-09-30 22:51:00,60.2,35.2,29.53,North,-999,-999.0,0.0,39,0.00,,,0.00,LWC V2.10 B1813,2013-10-01 04:51:00,
2013-09-30 22:56:00,60.1,35.7,29.53,North,-999,-999.0,0.0,40,0.00,,,0.00,LWC V2.10 B1813,2013-10-01 04:56:00,
2013-09-30 23:01:00,60.0,36.2,29.53,North,-999,-999.0,0.0,41,0.00,,,0.00,LWC V2.10 B1813,2013-10-01 05:01:00,
2013-09-30 23:06:00,59.8,36.1,29.53,North,-999,-999.0,0.0,41,0.00,,,0.00,LWC V2.10 B1813,2013-10-01 05:06:00,
2013-09-30 23:11:00,59.7,36.6,29.53,North,-999,-999.0,0.0,42,0.00,,,0.00,LWC V2.10 B1813,2013-10-01 05:11:00,
2013-09-30 23:16:00,59.6,37.1,29.53,North,-999,-999.0,0.0,43,0.00,,,0.00,LWC V2.10 B1813,2013-10-01 05:16:00,
2013-09-30 23:21:00,59.6,37.7,29.53,North,-999,-999.0,0.0,44,0.00,,,0.00,LWC V2.10 B1813,2013-10-01 05:21:00,
2013-09-30 23:26:00,59.3,37.4,29.53,North,-999,-999.0,0.0,44,0.00,,,0.00,LWC V2.10 B1813,2013-10-01 05:26:00,
2013-09-30 23:31:00,59.2,37.3,29.53,North,-999,-999.0,0.0,44,0.00,,,0.00,LWC V2.10 B1813,2013-10-01 05:31:00,
2013-09-30 23:36:00,59.1,37.8,29.53,North,-999,-999.0,0.0,45,0.00,,,0.00,LWC V2.10 B1813,2013-10-01 05:36:00,
2013-09-30 23:41:00,58.9,37.0,29.53,North,-999,-999.0,0.0,44,0.00,,,0.00,LWC V2.10 B1813,2013-10-01 05:41:00,
2013-09-30 23:46:00,58.8,36.9,29.53,North,-999,-999.0,0.0,44,0.00,,,0.00,LWC V2.10 B1813,2013-10-01 05:46:00,
2013-09-30 23:51:00,58.7,38.0,29.53,North,-999,-999.0,0.0,46,0.00,,,0.00,LWC V2.10 B1813,2013-10-01 05:51:00,
2013-09-30 23:56:00,58.6,37.3,29.53,North,-999,-999.0,0.0,45,0.00,,,0.00,LWC V2.10 B1813,2013-10-01 05:56:00,